{"data":{"norad_id":69377,"epoch":"2026-09-19T22:44:03.849792Z","epoch_age_seconds":76782,"freshness":"FRESH","line1":"1 69377U 26123AA  26262.94726678  .00021235  00000+0  61764-3 0  9992","line2":"2 69377  53.1588 144.3960 0000998  88.1696 271.9421 15.35415042 16783","mean_motion":15.35415042,"eccentricity":9.98e-5,"inclination_deg":53.1588,"raan_deg":144.396,"arg_perigee_deg":88.1696,"mean_anomaly_deg":271.9421,"bstar":0.00061764,"rev_number":1678,"period_min":93.785716604957,"perigee_km":459.00556869806,"apogee_km":460.3703985648,"semimajor_km":6837.8249836314,"source":"CELESTRAK","updated_at":"2026-09-20T09:00:44.192991Z"}}